[[{"header":{"parameterUnit":"m.s-1","parameterCategory":1,"la1":30.2992,"la2":30.254,"lo1":-89.0895,"lo2":-89.0443,"dy":0.0025,"dx":0.0025,"nx":19,"ny":19,"refTime":"2026-05-16T09:00:00:Z","depth":0,"parameterNumber":2,"parameterNumberName":"U-component_of_WINDS"},"data":[0,0,0,-1.3606,-1.3609,-1.3734,-1.3734,-1.3893,-1.3895,0,0,0,0,0,0,0,0,0,0,0,-1.3567,-1.3568,-1.3606,-1.3609,-1.3734,-1.3734,-1.3893,-1.3895,0,0,0,0,0,0,0,0,0,0,0,-1.3566,-1.3567,-1.3568,-1.361,-1.3734,-1.3734,-1.3893,-1.3799,0,0,0,0,0,0,0,0,0,0,-1.3679,-1.3638,-1.3567,-1.3568,-1.361,-1.3734,-1.3734,-1.3795,-1.3805,-1.3836,0,-1.386,0,-1.388,-1.3905,-1.3906,0,0,0,-1.3612,-1.363,-1.3666,-1.3569,-1.3611,-1.3733,-1.3678,-1.3801,-1.3812,-1.3849,-1.3862,-1.3868,-1.3882,-1.3906,-1.3907,-1.4069,-1.407,0,0,-1.3605,-1.3588,-1.3658,-1.3673,-1.3651,-1.3674,-1.3682,-1.3808,-1.3822,-1.3863,-1.3872,-1.3885,-1.3907,-1.3908,-1.4069,-1.4069,0,0,0,-1.3583,-1.3583,-1.3616,-1.3666,-1.3689,-1.3678,-1.3687,-1.3816,-1.3828,-1.3874,-1.3887,-1.3908,-1.391,-1.4068,-1.4069,-1.4083,0,0,0,-1.3579,-1.3571,-1.3613,-1.3604,-1.3686,-1.3754,-1.3692,-1.3819,-1.3834,-1.3886,-1.3908,-1.3911,-1.4067,-1.4069,-1.4082,-1.4094,0,0,0,-1.356,-1.3568,-1.3585,-1.3603,-1.3655,-1.3752,-1.3771,-1.3823,-1.3842,-1.3906,-1.3912,-1.4067,-1.4068,-1.408,-1.4091,-1.4132,0,0,0,-1.3534,-1.3597,-1.3585,-1.3661,-1.3654,-1.3759,-1.3771,-1.385,-1.3906,-1.3909,-1.4067,-1.4069,-1.4079,-1.4089,-1.413,-1.4164,-1.4176,0,0,-1.3604,-1.3605,-1.365,-1.3644,-1.3746,-1.3741,-1.3847,-1.3916,-1.3938,-1.4025,-1.4029,-1.4082,-1.4091,-1.4132,-1.4248,-1.4258,0,0,0,-1.3667,-1.37,-1.3731,-1.3782,-1.3835,-1.3882,-1.3936,-1.3962,-1.4036,-1.3978,-1.4108,-1.4114,-1.4139,-1.4156,-1.4164,-1.4187,-1.4076,-1.4076,-1.4075,-1.3743,-1.3767,-1.3845,-1.3884,-1.3934,-1.3989,-1.4033,-1.4078,-1.4088,-1.4118,-1.4145,-1.4212,-1.4231,-1.4238,-1.4261,-1.4164,-1.4164,-1.4164,-1.4164,-1.3848,-1.3899,-1.3911,-1.399,-1.4016,-1.4085,-1.4141,-1.4146,-1.4215,-1.4194,-1.4217,-1.4194,-1.4247,-1.4269,-1.4165,-1.4165,-1.4165,-1.4165,-1.4165,-1.3901,-1.3929,-1.3958,-1.4036,-1.4094,-1.4133,-1.4198,-1.422,-1.4241,-1.4264,-1.4294,-1.4294,-1.4298,-1.4277,-1.4277,-1.4277,-1.4277,-1.4277,-1.4278,-1.3944,-1.3977,-1.4028,-1.4089,-1.4126,-1.4177,-1.4233,-1.4271,-1.4318,-1.4329,-1.433,-1.4338,-1.4247,-1.4224,-1.4281,-1.4281,-1.428,-1.428,-1.428,-1.4044,-1.4025,-1.4104,-1.414,-1.4215,-1.4272,-1.4298,-1.4373,-1.4407,-1.4439,-1.4443,-1.4372,-1.4375,-1.4368,-1.435,-1.4436,-1.4436,-1.4436,-1.4436,-1.4089,-1.4092,-1.4178,-1.4235,-1.4294,-1.4326,-1.4417,-1.4462,-1.4506,-1.4529,-1.452,-1.4497,-1.4489,-1.4497,-1.4488,-1.4471,-1.4586,-1.4587,-1.4587,-1.4152,-1.4162,-1.4234,-1.4274,-1.4335,-1.4387,-1.4473,-1.4541,-1.4587,-1.4593,-1.4548,-1.4542,-1.4505,-1.4492,-1.4497,-1.4483,-1.4452,0,0]},{"header":{"parameterUnit":"m.s-1","parameterCategory":1,"la1":30.2992,"la2":30.254,"lo1":-89.0895,"lo2":-89.0443,"dy":0.0025,"dx":0.0025,"nx":19,"ny":19,"refTime":"2026-05-16T09:00:00:Z","depth":0,"parameterNumber":3,"parameterNumberName":"V-component_of_WINDS"},"data":[0,0,0,3.6022,3.6023,3.6072,3.6072,3.6146,3.6147,0,0,0,0,0,0,0,0,0,0,0,3.6017,3.6018,3.6022,3.6023,3.6072,3.6072,3.6146,3.6147,0,0,0,0,0,0,0,0,0,0,0,3.6016,3.6017,3.6018,3.6023,3.6072,3.6072,3.6146,3.6104,0,0,0,0,0,0,0,0,0,0,3.6055,3.606,3.6017,3.6018,3.6024,3.6072,3.6072,3.6102,3.6107,3.613,0,3.6154,0,3.6152,3.6153,3.6153,0,0,0,3.6016,3.6056,3.6061,3.6019,3.6024,3.6071,3.6048,3.6105,3.611,3.6136,3.6155,3.6158,3.6153,3.6153,3.6154,3.6312,3.6313,0,0,3.6013,3.603,3.6057,3.6065,3.606,3.6046,3.6049,3.6108,3.6129,3.6155,3.6159,3.6154,3.6154,3.6154,3.6311,3.6312,0,0,0,3.601,3.6029,3.6032,3.6062,3.607,3.6048,3.6051,3.6126,3.6126,3.616,3.6155,3.6154,3.6155,3.631,3.6312,3.638,0,0,0,3.6008,3.6027,3.6031,3.6042,3.6069,3.6099,3.6069,3.6122,3.6128,3.6155,3.6154,3.6156,3.6309,3.6311,3.6375,3.6408,0,0,0,3.601,3.6027,3.6037,3.6043,3.6064,3.6098,3.61,3.6123,3.6126,3.6153,3.6157,3.6308,3.631,3.6371,3.6402,3.6453,0,0,0,3.6017,3.6099,3.6039,3.6128,3.6064,3.6141,3.61,3.6156,3.6188,3.6155,3.6309,3.6311,3.637,3.6398,3.6449,3.6497,3.6519,0,0,3.613,3.6113,3.6164,3.6112,3.6204,3.6132,3.6233,3.6246,3.6233,3.6286,3.629,3.6377,3.6401,3.6452,3.6644,3.6662,0,0,0,3.6205,3.6242,3.6263,3.6294,3.6306,3.6318,3.6314,3.6319,3.6362,3.6265,3.641,3.6424,3.6453,3.6475,3.649,3.6512,3.6323,3.6323,3.6323,3.6388,3.6367,3.6449,3.6433,3.6464,3.6458,3.6479,3.6484,3.6455,3.6489,3.6504,3.6623,3.665,3.6661,3.6684,3.653,3.653,3.653,3.6531,3.6549,3.6596,3.6553,3.6617,3.6593,3.6646,3.6643,3.662,3.6664,3.6611,3.6635,3.6576,3.6681,3.67,3.6535,3.6535,3.6534,3.6534,3.6533,3.6664,3.6682,3.6686,3.6727,3.6761,3.6742,3.6786,3.6763,3.6742,3.6766,3.6777,3.6776,3.6769,3.6774,3.6774,3.6775,3.6775,3.6775,3.6776,3.678,3.6783,3.6823,3.6841,3.6856,3.6874,3.6868,3.6882,3.6891,3.6871,3.6871,3.6836,3.6697,3.666,3.6782,3.6781,3.678,3.6779,3.6779,3.6946,3.6905,3.6967,3.6982,3.7,3.7033,3.7004,3.7034,3.7042,3.7064,3.7024,3.6926,3.6907,3.6895,3.6864,3.703,3.703,3.703,3.7031,3.7041,3.703,3.7086,3.7111,3.7134,3.7113,3.7181,3.7176,3.7164,3.7168,3.7141,3.71,3.7088,3.7076,3.7059,3.703,3.7235,3.7236,3.7236,3.714,3.7129,3.7192,3.718,3.7192,3.7202,3.7263,3.7293,3.7272,3.7244,3.7169,3.716,3.7093,3.7073,3.7042,3.7017,3.6963,0,0]}]]